TimeCDT,TemperatureF,Dew PointF,Humidity,Sea Level PressureIn,VisibilityMPH,Wind Direction,Wind SpeedMPH,Gust SpeedMPH,PrecipitationIn,Events,Conditions,WindDirDegrees,DateUTC
12:52 AM,39.2,33.8,81,30.09,10.0,SW,5.8,-,N/A,,Clear,220,2011-10-29 05:52:00
1:52 AM,39.9,32.0,73,30.10,10.0,SW,3.5,-,N/A,,Clear,230,2011-10-29 06:52:00
2:52 AM,37.0,30.9,79,30.10,10.0,West,5.8,-,N/A,,Clear,260,2011-10-29 07:52:00
3:52 AM,35.1,30.0,82,30.09,10.0,WSW,3.5,-,N/A,,Clear,240,2011-10-29 08:52:00
4:52 AM,33.1,28.9,85,30.10,10.0,WSW,4.6,-,N/A,,Clear,250,2011-10-29 09:52:00
5:52 AM,33.1,28.0,82,30.10,10.0,WSW,3.5,-,N/A,,Clear,240,2011-10-29 10:52:00
6:52 AM,30.9,26.1,82,30.11,10.0,WSW,6.9,-,N/A,,Clear,250,2011-10-29 11:52:00
7:52 AM,33.1,26.1,75,30.12,10.0,WSW,5.8,-,N/A,,Clear,240,2011-10-29 12:52:00
8:52 AM,39.9,28.0,63,30.15,10.0,West,10.4,-,N/A,,Clear,270,2011-10-29 13:52:00
9:52 AM,46.0,28.9,51,30.16,10.0,West,10.4,-,N/A,,Clear,270,2011-10-29 14:52:00
10:52 AM,50.0,28.9,44,30.17,10.0,WNW,10.4,-,N/A,,Clear,300,2011-10-29 15:52:00
11:52 AM,55.9,27.0,33,30.17,10.0,WNW,15.0,20.7,N/A,,Clear,300,2011-10-29 16:52:00
12:52 PM,57.0,26.1,30,30.15,10.0,NNW,11.5,19.6,N/A,,Clear,330,2011-10-29 17:52:00
1:52 PM,57.9,25.0,28,30.13,10.0,NNW,5.8,23.0,N/A,,Clear,330,2011-10-29 18:52:00
2:52 PM,59.0,23.0,25,30.11,10.0,Variable,5.8,-,N/A,,Clear,0,2011-10-29 19:52:00
3:52 PM,59.0,21.0,23,30.11,10.0,West,10.4,-,N/A,,Clear,280,2011-10-29 20:52:00
4:52 PM,57.9,21.9,25,30.10,10.0,NW,4.6,-,N/A,,Clear,320,2011-10-29 21:52:00
5:52 PM,55.0,21.9,28,30.10,10.0,Calm,Calm,-,N/A,,Clear,0,2011-10-29 22:52:00
6:52 PM,46.4,26.6,46,30.10,10.0,Calm,Calm,-,N/A,,Clear,0,2011-10-29 23:52:00
7:52 PM,42.1,28.0,58,30.12,10.0,ESE,3.5,-,N/A,,Clear,120,2011-10-30 00:52:00
8:52 PM,42.1,30.0,62,30.13,10.0,ESE,4.6,-,N/A,,Clear,120,2011-10-30 01:52:00
9:52 PM,42.1,27.0,55,30.12,10.0,ESE,8.1,-,N/A,,Clear,120,2011-10-30 02:52:00
10:52 PM,44.1,25.0,47,30.11,10.0,SE,9.2,-,N/A,,Clear,130,2011-10-30 03:52:00
11:52 PM,41.0,25.0,53,30.11,10.0,SE,8.1,-,N/A,,Clear,130,2011-10-30 04:52:00